sat.trackr.live / text

‹ back to catalog

STARLINK-31448

NORAD 59611 · 2024-080L

PAYLOAD ACTIVE UNKNOWN

§ Identity

Operator
Country
US
Launch date
2024-04-28
Launch site
AFETR
Launch vehicle
Mass (kg)
RCS (m²)

Purposes: comms

External: N2YO · Heavens-Above · Gunter

§ Orbital elements

Epoch: 2026-05-25T04:49:31.787904Z

Period
94.27 min
Inclination
43.0021°
Eccentricity
0.0000934
Mean motion
15.27576212 rev/d
Perigee alt
482.4 km
Apogee alt
483.7 km
Semi-major
6,861.2 km
B*
1.9483e-5
RAAN
322.3913°
Arg perigee
280.1155°
Mean anomaly
79.9591°
Rev number
11,627

§ Raw data

STARLINK-314481 59611U 24080L   26145.20106236  .00000274  00000+0  19483-4 0  99952 59611  43.0021 322.3913 0000934 280.1155  79.9591 15.27576212116270

JSON: /api/v1/satellites/59611 · /tle

For live sub-satellite position, see the globe view (requires WebGL).

§ Visibility from observer

Set your observer location to see the next 7 days of passes ≥ 10°. The values pass through the URL so the page stays shareable.

No JS? Fill the form by hand. The geolocation button needs JavaScript.